WMT411 LATI-EDDB

Flight info

Callsign WMT411
Flight time 2h 9m
Altitude 18000
Route INLOT L604 RETRA/N0445F360 DCT OSLUD DCT GUBOK DCT KOPRY DCT SASAL DCT PISAM DCT ODLIV DCT LEGAZ DCT BEFRE T204 NUKRO NUKRO1R
Aircraft A321/M-SDE1E2E3FGIJ1J4RWXY/LB1

Departure

Time 2026-05-07 11:07
Airport Tirana International Airport Mother Teresa (LATI)

Arrival

Time 2026-05-07 13:17
Airport Berlin Brandenburg Airport (EDDB)
Time Latitude Longitude Altitude Speed Heading
2026-05-07 10:37 41.41949 19.71519 120 ft 0 kts 264°
2026-05-07 10:41 41.41949 19.71520 123 ft 0 kts 264°
2026-05-07 10:57 41.41950 19.71527 119 ft 4 kts 266°
2026-05-07 10:57 41.41946 19.71561 120 ft 4 kts 301°
2026-05-07 10:57 41.41929 19.71582 118 ft 4 kts 348°
2026-05-07 10:58 41.41918 19.71585 118 ft 1 kts 354°
2026-05-07 11:00 41.41926 19.71584 123 ft 3 kts 354°
2026-05-07 11:00 41.41962 19.71579 121 ft 7 kts 355°
2026-05-07 11:01 41.42024 19.71571 121 ft 11 kts 355°
2026-05-07 11:01 41.42114 19.71555 120 ft 15 kts 346°
2026-05-07 11:01 41.42229 19.71522 120 ft 18 kts 356°
2026-05-07 11:01 41.42349 19.71514 117 ft 17 kts 358°
2026-05-07 11:02 41.42468 19.71508 115 ft 18 kts 356°
2026-05-07 11:02 41.42592 19.71493 117 ft 18 kts 352°
2026-05-07 11:02 41.42671 19.71571 118 ft 16 kts 81°
2026-05-07 11:02 41.42678 19.71721 118 ft 15 kts 86°
2026-05-07 11:03 41.42680 19.71756 118 ft 0 kts 85°
2026-05-07 11:06 41.42680 19.71760 118 ft 2 kts 85°
2026-05-07 11:06 41.42682 19.71788 115 ft 4 kts 85°
2026-05-07 11:06 41.42685 19.71839 118 ft 6 kts 90°
2026-05-07 11:06 41.42657 19.71892 117 ft 10 kts 155°
2026-05-07 11:07 41.42412 19.71930 120 ft 71 kts 174°
2026-05-07 11:07 41.41692 19.72028 124 ft 134 kts 174°
2026-05-07 11:07 41.40606 19.72176 230 ft 172 kts 173°
2026-05-07 11:07 41.39421 19.72323 933 ft 170 kts 174°
2026-05-07 11:08 41.38245 19.72477 1610 ft 173 kts 172°
2026-05-07 11:08 41.36979 19.72648 1888 ft 194 kts 172°
2026-05-07 11:08 41.35555 19.72840 2120 ft 218 kts 173°
2026-05-07 11:08 41.33962 19.73054 2421 ft 240 kts 174°
2026-05-07 11:09 41.32305 19.73275 3164 ft 244 kts 174°
2026-05-07 11:09 41.30603 19.73500 3926 ft 248 kts 175°
2026-05-07 11:09 41.28873 19.73729 4722 ft 253 kts 176°
2026-05-07 11:09 41.27102 19.73960 5433 ft 259 kts 177°
2026-05-07 11:10 41.25311 19.73764 6103 ft 261 kts 205°
2026-05-07 11:10 41.23896 19.72288 6705 ft 265 kts 239°
2026-05-07 11:10 41.23394 19.69965 7443 ft 267 kts 272°
2026-05-07 11:10 41.23987 19.67631 8190 ft 275 kts 304°
2026-05-07 11:11 41.25511 19.66059 8931 ft 288 kts 335°
2026-05-07 11:11 41.27463 19.65315 9691 ft 295 kts 345°
2026-05-07 11:11 41.29510 19.64872 10340 ft 304 kts 348°
2026-05-07 11:11 41.31688 19.64475 10536 ft 328 kts 348°
2026-05-07 11:12 41.34016 19.64014 10808 ft 345 kts 347°
2026-05-07 11:12 41.36404 19.63469 11383 ft 351 kts 346°
2026-05-07 11:12 41.38807 19.62843 12059 ft 354 kts 345°
2026-05-07 11:12 41.41222 19.62158 12742 ft 356 kts 344°
2026-05-07 11:13 41.43653 19.61438 13415 ft 359 kts 343°
2026-05-07 11:13 41.46102 19.60700 14083 ft 362 kts 343°
2026-05-07 11:13 41.47768 19.60196 14485 ft 365 kts 343°
2026-05-07 11:13 41.51069 19.59205 15268 ft 370 kts 343°
2026-05-07 11:14 41.52772 19.58700 15672 ft 372 kts 343°
2026-05-07 11:14 41.55311 19.57953 16308 ft 375 kts 343°
2026-05-07 11:14 41.57871 19.57200 16923 ft 378 kts 343°
2026-05-07 11:14 41.60419 19.56447 17502 ft 382 kts 343°
2026-05-07 11:15 41.63023 19.55681 18085 ft 385 kts 343°
2026-05-07 11:15 41.65650 19.54906 18631 ft 388 kts 343°
2026-05-07 11:15 41.68298 19.54122 19127 ft 392 kts 343°
2026-05-07 11:15 41.70970 19.53329 19618 ft 395 kts 343°
2026-05-07 11:16 41.73663 19.52528 20117 ft 398 kts 343°
2026-05-07 11:16 41.76381 19.51718 20635 ft 402 kts 343°
2026-05-07 11:16 41.79119 19.50903 21129 ft 405 kts 343°
2026-05-07 11:16 41.81887 19.50081 21622 ft 409 kts 343°
2026-05-07 11:17 41.84679 19.49255 22112 ft 413 kts 343°
2026-05-07 11:17 41.87493 19.48419 22610 ft 416 kts 343°
2026-05-07 11:17 41.90335 19.47574 23068 ft 420 kts 343°
2026-05-07 11:17 41.93198 19.46722 23512 ft 423 kts 343°
2026-05-07 11:18 41.96089 19.45862 23919 ft 427 kts 343°
2026-05-07 11:18 41.98955 19.44849 24311 ft 425 kts 336°
2026-05-07 11:18 42.01750 19.43532 24715 ft 427 kts 336°
2026-05-07 11:18 42.04560 19.42199 25092 ft 429 kts 336°
2026-05-07 11:19 42.07387 19.40854 25460 ft 433 kts 336°
2026-05-07 11:19 42.10230 19.39500 25827 ft 435 kts 336°
2026-05-07 11:19 42.13093 19.38138 26185 ft 438 kts 336°
2026-05-07 11:19 42.15971 19.36770 26536 ft 440 kts 336°
2026-05-07 11:20 42.18872 19.35390 26878 ft 444 kts 336°
2026-05-07 11:20 42.21795 19.33995 27187 ft 447 kts 336°
2026-05-07 11:20 42.24737 19.32609 27520 ft 450 kts 336°
2026-05-07 11:20 42.27724 19.31276 27859 ft 454 kts 338°
2026-05-07 11:21 42.30744 19.29986 28182 ft 457 kts 338°
2026-05-07 11:21 42.33787 19.28718 28510 ft 459 kts 339°
2026-05-07 11:21 42.36855 19.27441 28830 ft 462 kts 338°
2026-05-07 11:21 42.39932 19.26146 29123 ft 466 kts 338°
2026-05-07 11:22 42.43035 19.24821 29355 ft 470 kts 338°
2026-05-07 11:22 42.46168 19.23469 29497 ft 476 kts 338°
2026-05-07 11:22 42.49347 19.22085 29633 ft 482 kts 338°
2026-05-07 11:22 42.52556 19.20682 29787 ft 488 kts 338°
2026-05-07 11:23 42.55805 19.19261 29929 ft 493 kts 338°
2026-05-07 11:23 42.59086 19.17826 30098 ft 497 kts 338°
2026-05-07 11:23 42.62393 19.16386 30287 ft 501 kts 339°
2026-05-07 11:23 42.65714 19.14948 30526 ft 502 kts 339°
2026-05-07 11:24 42.69038 19.13508 30792 ft 501 kts 339°
2026-05-07 11:24 42.72359 19.12067 31070 ft 501 kts 339°
2026-05-07 11:24 42.75665 19.10623 31474 ft 496 kts 339°
2026-05-07 11:24 42.78937 19.09188 31885 ft 493 kts 339°
2026-05-07 11:25 42.82190 19.07759 32238 ft 491 kts 339°
2026-05-07 11:25 42.85439 19.06333 32530 ft 490 kts 339°
2026-05-07 11:25 42.88679 19.04912 32842 ft 489 kts 339°
2026-05-07 11:25 42.91910 19.03496 33151 ft 487 kts 339°
2026-05-07 11:26 42.95137 19.02080 33439 ft 486 kts 339°
2026-05-07 11:26 42.98346 19.00670 33693 ft 484 kts 339°
2026-05-07 11:26 43.01552 18.99257 33983 ft 484 kts 339°
2026-05-07 11:26 43.04761 18.97839 34202 ft 485 kts 339°
2026-05-07 11:27 43.07973 18.96416 34407 ft 485 kts 339°
2026-05-07 11:27 43.11187 18.94990 34621 ft 485 kts 339°
2026-05-07 11:27 43.14391 18.93569 34855 ft 484 kts 339°
2026-05-07 11:27 43.17594 18.92147 35097 ft 483 kts 338°
2026-05-07 11:28 43.20796 18.90724 35335 ft 483 kts 338°
2026-05-07 11:28 43.23988 18.89308 35570 ft 482 kts 338°
2026-05-07 11:28 43.27175 18.87898 35809 ft 481 kts 338°
2026-05-07 11:28 43.30355 18.86484 36030 ft 480 kts 338°
2026-05-07 11:29 43.36709 18.83647 36098 ft 480 kts 338°
2026-05-07 11:29 43.43011 18.80835 36102 ft 479 kts 338°
2026-05-07 11:30 43.49332 18.77940 36092 ft 478 kts 336°
2026-05-07 11:30 43.55481 18.74537 36091 ft 475 kts 333°
2026-05-07 11:31 43.61531 18.70861 36082 ft 475 kts 332°
2026-05-07 11:31 43.67615 18.67229 36097 ft 477 kts 333°
2026-05-07 11:32 43.76815 18.61929 36083 ft 478 kts 333°
2026-05-07 11:33 43.82953 18.58399 36099 ft 477 kts 333°
2026-05-07 11:33 43.89071 18.54847 36095 ft 477 kts 333°
2026-05-07 11:34 43.95182 18.51276 36094 ft 477 kts 333°
2026-05-07 11:34 44.01291 18.47693 36091 ft 476 kts 333°
2026-05-07 11:35 44.07400 18.44115 36100 ft 477 kts 333°
2026-05-07 11:35 44.13514 18.40530 36098 ft 477 kts 333°
2026-05-07 11:36 44.19632 18.36925 36094 ft 478 kts 333°
2026-05-07 11:36 44.25760 18.33320 36088 ft 478 kts 333°
2026-05-07 11:37 44.31885 18.29708 36092 ft 478 kts 333°
2026-05-07 11:37 44.38009 18.26080 36082 ft 478 kts 333°
2026-05-07 11:38 44.44130 18.22446 36094 ft 478 kts 332°
2026-05-07 11:38 44.50251 18.18799 36086 ft 478 kts 332°
2026-05-07 11:39 44.56372 18.15150 36084 ft 478 kts 332°
2026-05-07 11:39 44.62490 18.11497 36082 ft 478 kts 332°
2026-05-07 11:40 44.68616 18.07825 36083 ft 479 kts 332°
2026-05-07 11:40 44.74738 18.04146 36068 ft 478 kts 332°
2026-05-07 11:41 44.80846 18.00474 36067 ft 478 kts 332°
2026-05-07 11:41 44.86912 17.96812 36070 ft 478 kts 332°
2026-05-07 11:42 44.93030 17.93107 36068 ft 478 kts 332°
2026-05-07 11:42 44.99154 17.89405 36073 ft 479 kts 332°
2026-05-07 11:43 45.05274 17.85657 36084 ft 479 kts 330°
2026-05-07 11:43 45.11226 17.81487 36077 ft 476 kts 327°
2026-05-07 11:44 45.17048 17.77015 36091 ft 476 kts 326°
2026-05-07 11:44 45.22890 17.72557 36082 ft 477 kts 327°
2026-05-07 11:45 45.28781 17.68194 36076 ft 478 kts 327°
2026-05-07 11:45 45.34694 17.63856 36090 ft 478 kts 327°
2026-05-07 11:46 45.40603 17.59495 36081 ft 479 kts 327°
2026-05-07 11:46 45.46503 17.55098 36078 ft 479 kts 327°
2026-05-07 11:47 45.52406 17.50675 36082 ft 479 kts 326°
2026-05-07 11:47 45.58306 17.46245 36079 ft 479 kts 326°
2026-05-07 11:48 45.64202 17.41814 36065 ft 478 kts 326°
2026-05-07 11:48 45.70083 17.37394 36064 ft 478 kts 326°
2026-05-07 11:49 45.75966 17.32953 36069 ft 479 kts 326°
2026-05-07 11:49 45.81858 17.28485 36066 ft 478 kts 326°
2026-05-07 11:50 45.87742 17.24025 36075 ft 479 kts 326°
2026-05-07 11:50 45.93599 17.19580 36059 ft 479 kts 326°
2026-05-07 11:51 45.99518 17.15080 36055 ft 478 kts 326°
2026-05-07 11:51 46.05362 17.10621 36056 ft 479 kts 326°
2026-05-07 11:52 46.11250 17.06113 36068 ft 480 kts 326°
2026-05-07 11:52 46.17143 17.01575 36063 ft 480 kts 326°
2026-05-07 11:53 46.23052 16.97055 36054 ft 482 kts 328°
2026-05-07 11:53 46.29432 16.93792 36045 ft 488 kts 336°
2026-05-07 11:54 46.35915 16.90826 36056 ft 489 kts 336°
2026-05-07 11:54 46.42406 16.87831 36048 ft 490 kts 336°
2026-05-07 11:55 46.48894 16.84826 36041 ft 490 kts 336°
2026-05-07 11:55 46.55391 16.81824 36042 ft 490 kts 336°
2026-05-07 11:56 46.61899 16.78805 36031 ft 491 kts 336°
2026-05-07 11:56 46.68397 16.75777 36014 ft 491 kts 336°
2026-05-07 11:57 46.74912 16.72742 36019 ft 492 kts 336°
2026-05-07 11:57 46.81438 16.69696 36032 ft 493 kts 336°
2026-05-07 11:58 46.87971 16.66627 36023 ft 493 kts 336°
2026-05-07 11:58 46.94505 16.63553 36026 ft 494 kts 336°
2026-05-07 11:59 47.01047 16.60472 36058 ft 494 kts 336°
2026-05-07 11:59 47.06482 16.57909 35994 ft 493 kts 336°
2026-05-07 12:00 47.13014 16.54803 35996 ft 494 kts 336°
2026-05-07 12:00 47.19557 16.51679 36004 ft 495 kts 336°
2026-05-07 12:01 47.26110 16.48557 36023 ft 495 kts 336°
2026-05-07 12:01 47.32476 16.44857 36022 ft 491 kts 330°
2026-05-07 12:02 47.38719 16.40768 36022 ft 491 kts 330°
2026-05-07 12:02 47.44947 16.36648 36017 ft 491 kts 330°
2026-05-07 12:03 47.51184 16.32535 36026 ft 491 kts 330°
2026-05-07 12:03 47.57429 16.28412 36026 ft 491 kts 330°
2026-05-07 12:04 47.63672 16.24276 36021 ft 492 kts 330°
2026-05-07 12:04 47.69917 16.20141 36022 ft 491 kts 330°
2026-05-07 12:05 47.76160 16.15994 36003 ft 490 kts 330°
2026-05-07 12:05 47.82375 16.11845 36003 ft 490 kts 330°
2026-05-07 12:06 47.88558 16.07693 36015 ft 491 kts 330°
2026-05-07 12:06 47.94793 16.03500 36017 ft 492 kts 330°
2026-05-07 12:07 48.01040 15.99305 36020 ft 492 kts 330°
2026-05-07 12:07 48.07283 15.95093 36018 ft 493 kts 330°
2026-05-07 12:08 48.13530 15.90870 36003 ft 492 kts 330°
2026-05-07 12:08 48.19775 15.86643 35998 ft 493 kts 330°
2026-05-07 12:09 48.26022 15.82401 36004 ft 493 kts 330°
2026-05-07 12:09 48.32264 15.78142 36000 ft 493 kts 330°
2026-05-07 12:10 48.38501 15.73878 36002 ft 493 kts 330°
2026-05-07 12:10 48.44741 15.69608 36017 ft 492 kts 330°
2026-05-07 12:11 48.50960 15.65343 35972 ft 491 kts 330°
2026-05-07 12:11 48.57174 15.61059 35983 ft 491 kts 330°
2026-05-07 12:12 48.63388 15.56749 35985 ft 492 kts 330°
2026-05-07 12:12 48.69613 15.52425 36000 ft 492 kts 330°
2026-05-07 12:13 48.75842 15.48094 35988 ft 493 kts 330°
2026-05-07 12:13 48.82080 15.43751 35985 ft 492 kts 331°
2026-05-07 12:14 48.88306 15.39486 35979 ft 493 kts 335°
2026-05-07 12:14 48.94996 15.36884 35984 ft 499 kts 345°
2026-05-07 12:15 49.01804 15.34725 35981 ft 500 kts 344°
2026-05-07 12:15 49.08613 15.32557 35984 ft 500 kts 344°
2026-05-07 12:16 49.15433 15.30385 35986 ft 501 kts 344°
2026-05-07 12:16 49.22253 15.28195 35984 ft 501 kts 344°
2026-05-07 12:17 49.29079 15.25995 35996 ft 501 kts 345°
2026-05-07 12:17 49.35865 15.23809 35961 ft 498 kts 345°
2026-05-07 12:18 49.42647 15.21608 35977 ft 498 kts 345°
2026-05-07 12:18 49.49439 15.19396 35971 ft 499 kts 345°
2026-05-07 12:19 49.56246 15.17181 35979 ft 500 kts 345°
2026-05-07 12:19 49.63058 15.14960 35976 ft 500 kts 345°
2026-05-07 12:20 49.69868 15.12726 35978 ft 501 kts 345°
2026-05-07 12:20 49.76684 15.10486 35971 ft 501 kts 345°
2026-05-07 12:21 49.83459 15.08266 35998 ft 500 kts 345°
2026-05-07 12:21 49.90260 15.06028 35981 ft 499 kts 345°
2026-05-07 12:22 49.97050 15.03773 35973 ft 499 kts 345°
2026-05-07 12:22 50.03840 15.01518 35971 ft 499 kts 345°
2026-05-07 12:23 50.10626 14.99257 35980 ft 499 kts 345°
2026-05-07 12:23 50.17407 14.96978 35981 ft 499 kts 345°
2026-05-07 12:24 50.24193 14.94705 35976 ft 499 kts 345°
2026-05-07 12:24 50.30985 14.92430 35974 ft 499 kts 345°
2026-05-07 12:25 50.37756 14.90151 35960 ft 496 kts 345°
2026-05-07 12:25 50.44492 14.87866 35944 ft 496 kts 345°
2026-05-07 12:26 50.51237 14.85563 35949 ft 496 kts 345°
2026-05-07 12:26 50.57975 14.83137 35962 ft 497 kts 344°
2026-05-07 12:27 50.64710 14.80631 35967 ft 498 kts 344°
2026-05-07 12:27 50.71458 14.78132 35967 ft 499 kts 344°
2026-05-07 12:28 50.78228 14.75649 35977 ft 500 kts 344°
2026-05-07 12:28 50.85008 14.73167 35982 ft 500 kts 344°
2026-05-07 12:29 50.91785 14.70668 36006 ft 500 kts 345°
2026-05-07 12:29 50.98537 14.68102 36004 ft 498 kts 343°
2026-05-07 12:30 51.05250 14.65377 36001 ft 497 kts 343°
2026-05-07 12:30 51.11900 14.62645 36008 ft 497 kts 343°
2026-05-07 12:31 51.18599 14.59920 36017 ft 497 kts 343°
2026-05-07 12:31 51.25300 14.57217 36014 ft 496 kts 343°
2026-05-07 12:32 51.31991 14.54497 36023 ft 497 kts 343°
2026-05-07 12:32 51.38713 14.51932 36017 ft 498 kts 351°
2026-05-07 12:33 51.48767 14.50368 36034 ft 497 kts 353°
2026-05-07 12:33 51.55646 14.49308 36028 ft 496 kts 353°
2026-05-07 12:34 51.62520 14.48251 36027 ft 496 kts 353°
2026-05-07 12:34 51.69306 14.47202 36029 ft 496 kts 353°
2026-05-07 12:35 51.76172 14.46131 36028 ft 496 kts 353°
2026-05-07 12:35 51.82945 14.45069 36033 ft 496 kts 353°
2026-05-07 12:36 51.89701 14.44025 35822 ft 491 kts 353°
2026-05-07 12:36 51.93106 14.43494 35116 ft 492 kts 353°
2026-05-07 12:36 51.96519 14.42956 34461 ft 492 kts 353°
2026-05-07 12:37 51.99907 14.42324 33842 ft 489 kts 346°
2026-05-07 12:37 52.03037 14.40421 33239 ft 478 kts 325°
2026-05-07 12:37 52.05520 14.36990 32696 ft 464 kts 304°
2026-05-07 12:37 52.07064 14.32510 32171 ft 449 kts 284°
2026-05-07 12:38 52.07554 14.27594 31633 ft 437 kts 267°
2026-05-07 12:38 52.07392 14.22693 31058 ft 433 kts 262°
2026-05-07 12:38 52.07135 14.17837 30516 ft 430 kts 262°
2026-05-07 12:38 52.06881 14.13024 29987 ft 426 kts 263°
2026-05-07 12:39 52.06810 14.08209 29374 ft 425 kts 269°
2026-05-07 12:39 52.06986 14.03498 28788 ft 422 kts 273°
2026-05-07 12:39 52.07323 13.98770 28208 ft 419 kts 275°
2026-05-07 12:39 52.07726 13.94103 27699 ft 415 kts 276°
2026-05-07 12:40 52.08120 13.89596 27439 ft 390 kts 276°
2026-05-07 12:40 52.08463 13.85311 26794 ft 377 kts 275°
2026-05-07 12:40 52.08758 13.81118 25925 ft 371 kts 275°
2026-05-07 12:40 52.09018 13.76973 25047 ft 366 kts 274°
2026-05-07 12:41 52.09261 13.72876 24199 ft 362 kts 275°
2026-05-07 12:41 52.09493 13.68829 23330 ft 357 kts 275°
2026-05-07 12:41 52.09723 13.64839 22389 ft 352 kts 275°
2026-05-07 12:41 52.09963 13.60903 21501 ft 347 kts 275°
2026-05-07 12:42 52.10239 13.57034 20647 ft 342 kts 276°
2026-05-07 12:42 52.10537 13.53229 19797 ft 337 kts 276°
2026-05-07 12:42 52.10838 13.49481 18972 ft 332 kts 276°
2026-05-07 12:42 52.11131 13.45786 18146 ft 327 kts 276°
2026-05-07 12:43 52.11414 13.42140 17375 ft 319 kts 275°
2026-05-07 12:43 52.11680 13.38691 17066 ft 299 kts 275°
2026-05-07 12:43 52.12049 13.35421 16429 ft 292 kts 290°
2026-05-07 12:43 52.12996 13.32545 15759 ft 287 kts 307°
2026-05-07 12:44 52.14194 13.29964 15082 ft 285 kts 307°
2026-05-07 12:44 52.15378 13.27411 14465 ft 281 kts 307°
2026-05-07 12:44 52.16551 13.24882 13856 ft 278 kts 307°
2026-05-07 12:44 52.17690 13.22365 13173 ft 275 kts 302°
2026-05-07 12:45 52.18369 13.19497 12509 ft 271 kts 277°
2026-05-07 12:45 52.18298 13.16464 11845 ft 268 kts 254°
2026-05-07 12:45 52.17654 13.13617 11128 ft 269 kts 247°
2026-05-07 12:45 52.16955 13.10785 10478 ft 268 kts 248°
2026-05-07 12:46 52.16264 13.07966 9841 ft 268 kts 248°
2026-05-07 12:46 52.15579 13.05159 9197 ft 266 kts 248°
2026-05-07 12:46 52.14905 13.02383 8568 ft 263 kts 248°
2026-05-07 12:46 52.14462 13.00553 8181 ft 260 kts 249°
2026-05-07 12:47 52.13804 12.97835 7597 ft 256 kts 249°
2026-05-07 12:47 52.13151 12.95151 7002 ft 254 kts 249°
2026-05-07 12:47 52.12503 12.92494 6461 ft 249 kts 249°
2026-05-07 12:47 52.11873 12.89917 6195 ft 244 kts 249°
2026-05-07 12:48 52.11240 12.87330 6075 ft 247 kts 249°
2026-05-07 12:48 52.10604 12.84730 5937 ft 247 kts 248°
2026-05-07 12:48 52.09969 12.82140 6021 ft 249 kts 248°
2026-05-07 12:48 52.09331 12.79535 6030 ft 247 kts 248°
2026-05-07 12:49 52.08693 12.76938 6041 ft 248 kts 248°
2026-05-07 12:49 52.08054 12.74335 6037 ft 249 kts 248°
2026-05-07 12:49 52.07730 12.71618 6031 ft 246 kts 278°
2026-05-07 12:49 52.08284 12.69046 6036 ft 243 kts 309°
2026-05-07 12:50 52.09552 12.67299 6038 ft 240 kts 338°
2026-05-07 12:50 52.11103 12.66285 6040 ft 241 kts 341°
2026-05-07 12:50 52.12709 12.65555 6033 ft 238 kts
2026-05-07 12:50 52.14287 12.66155 6037 ft 234 kts 31°
2026-05-07 12:51 52.15431 12.67961 5873 ft 229 kts 62°
2026-05-07 12:51 52.16050 12.70347 5749 ft 230 kts 69°
2026-05-07 12:51 52.16638 12.72772 5598 ft 230 kts 69°
2026-05-07 12:51 52.17230 12.75193 5482 ft 229 kts 68°
2026-05-07 12:52 52.17818 12.77593 5367 ft 228 kts 68°
2026-05-07 12:52 52.18407 12.80002 5231 ft 228 kts 68°
2026-05-07 12:52 52.18997 12.82415 5124 ft 228 kts 68°
2026-05-07 12:52 52.19582 12.84809 5014 ft 227 kts 68°
2026-05-07 12:53 52.20166 12.87197 4888 ft 227 kts 68°
2026-05-07 12:53 52.20749 12.89587 4771 ft 227 kts 68°
2026-05-07 12:53 52.21350 12.92113 4683 ft 244 kts 68°
2026-05-07 12:53 52.21959 12.94649 4548 ft 235 kts 68°
2026-05-07 12:54 52.22554 12.97092 4347 ft 227 kts 68°
2026-05-07 12:54 52.23149 12.99533 4275 ft 231 kts 68°
2026-05-07 12:54 52.23731 13.01924 4044 ft 225 kts 67°
2026-05-07 12:54 52.24314 13.04321 3970 ft 225 kts 68°
2026-05-07 12:55 52.24895 13.06716 3871 ft 226 kts 68°
2026-05-07 12:55 52.25467 13.09077 3711 ft 224 kts 68°
2026-05-07 12:55 52.26052 13.11488 3636 ft 222 kts 67°
2026-05-07 12:55 52.26603 13.13769 3521 ft 208 kts 67°
2026-05-07 12:56 52.27118 13.15897 3434 ft 198 kts 67°
2026-05-07 12:56 52.27612 13.17942 3340 ft 194 kts 67°
2026-05-07 12:56 52.28105 13.19987 3247 ft 193 kts 67°
2026-05-07 12:56 52.28595 13.22019 3154 ft 192 kts 67°
2026-05-07 12:57 52.29083 13.24042 3088 ft 191 kts 67°
2026-05-07 12:57 52.29569 13.26065 2901 ft 191 kts 67°
2026-05-07 12:57 52.30052 13.28075 2664 ft 189 kts 67°
2026-05-07 12:57 52.30533 13.30077 2414 ft 190 kts 67°
2026-05-07 12:58 52.31014 13.32079 2153 ft 189 kts 67°
2026-05-07 12:58 52.31494 13.34083 1893 ft 190 kts 67°
2026-05-07 12:58 52.31975 13.36090 1631 ft 190 kts 67°
2026-05-07 12:58 52.32455 13.38099 1367 ft 189 kts 67°
2026-05-07 12:59 52.32932 13.40094 1119 ft 186 kts 67°
2026-05-07 12:59 52.33386 13.41996 845 ft 172 kts 68°
2026-05-07 12:59 52.33798 13.43734 706 ft 167 kts 68°
2026-05-07 12:59 52.34233 13.45621 1643 ft 182 kts 68°
2026-05-07 13:00 52.34701 13.47679 2525 ft 201 kts 68°
2026-05-07 13:00 52.35241 13.50038 2963 ft 245 kts 68°
2026-05-07 13:00 52.35909 13.52952 3031 ft 300 kts 68°
2026-05-07 13:00 52.36693 13.56375 3035 ft 342 kts 68°
2026-05-07 13:01 52.37569 13.60167 3564 ft 357 kts 69°
2026-05-07 13:01 52.38437 13.63912 5043 ft 352 kts 69°
2026-05-07 13:01 52.39319 13.67558 5090 ft 333 kts 65°
2026-05-07 13:01 52.40569 13.70543 5092 ft 312 kts 43°
2026-05-07 13:02 52.42347 13.72314 5082 ft 293 kts 18°
2026-05-07 13:02 52.44302 13.72614 5079 ft 277 kts 353°
2026-05-07 13:02 52.46133 13.71985 5077 ft 261 kts 347°
2026-05-07 13:02 52.47824 13.71182 5079 ft 246 kts 340°
2026-05-07 13:03 52.49144 13.69561 5082 ft 235 kts 307°
2026-05-07 13:03 52.49724 13.67080 5089 ft 236 kts 274°
2026-05-07 13:03 52.49451 13.64427 5084 ft 240 kts 250°
2026-05-07 13:03 52.48825 13.61889 5088 ft 240 kts 246°
2026-05-07 13:04 52.48159 13.59418 5087 ft 239 kts 245°
2026-05-07 13:04 52.47479 13.56928 5089 ft 240 kts 245°
2026-05-07 13:04 52.46794 13.54452 4973 ft 235 kts 245°
2026-05-07 13:04 52.46113 13.52015 4846 ft 236 kts 245°
2026-05-07 13:05 52.45447 13.49565 4706 ft 236 kts 248°
2026-05-07 13:05 52.44862 13.47053 4576 ft 234 kts 250°
2026-05-07 13:05 52.44295 13.44535 4438 ft 236 kts 250°
2026-05-07 13:05 52.43724 13.42004 4312 ft 237 kts 250°
2026-05-07 13:06 52.43162 13.39516 4181 ft 235 kts 250°
2026-05-07 13:06 52.42589 13.36981 4046 ft 235 kts 250°
2026-05-07 13:06 52.42023 13.34478 3928 ft 234 kts 250°
2026-05-07 13:06 52.41455 13.31990 3784 ft 233 kts 250°
2026-05-07 13:07 52.40886 13.29520 3657 ft 231 kts 250°
2026-05-07 13:07 52.40321 13.27074 3527 ft 233 kts 250°
2026-05-07 13:07 52.39736 13.24558 3393 ft 234 kts 250°
2026-05-07 13:07 52.39165 13.22104 3268 ft 234 kts 250°
2026-05-07 13:08 52.38579 13.19629 3147 ft 232 kts 250°
2026-05-07 13:08 52.37998 13.17155 3037 ft 234 kts 250°
2026-05-07 13:08 52.37419 13.14684 3026 ft 232 kts 250°
2026-05-07 13:08 52.36839 13.12211 3018 ft 233 kts 250°
2026-05-07 13:09 52.36260 13.09740 3020 ft 232 kts 250°
2026-05-07 13:09 52.35672 13.07281 3016 ft 232 kts 246°
2026-05-07 13:09 52.34675 13.05244 3019 ft 232 kts 212°
2026-05-07 13:09 52.33178 13.04410 3015 ft 228 kts 178°
2026-05-07 13:10 52.31641 13.04881 3022 ft 225 kts 158°
2026-05-07 13:10 52.30168 13.05750 3020 ft 225 kts 155°
2026-05-07 13:10 52.28826 13.06962 3019 ft 218 kts 130°
2026-05-07 13:10 52.27967 13.08965 3024 ft 215 kts 116°
2026-05-07 13:11 52.27276 13.11132 3023 ft 215 kts 111°
2026-05-07 13:11 52.26908 13.13458 3028 ft 210 kts 90°
2026-05-07 13:11 52.27098 13.15796 3024 ft 208 kts 69°
2026-05-07 13:11 52.27623 13.17995 3022 ft 208 kts 67°
2026-05-07 13:12 52.28148 13.20166 3047 ft 199 kts 67°
2026-05-07 13:12 52.28638 13.22199 3043 ft 182 kts 67°
2026-05-07 13:12 52.29070 13.23993 3024 ft 159 kts 66°
2026-05-07 13:12 52.29458 13.25609 2917 ft 149 kts 66°
2026-05-07 13:13 52.29830 13.27153 2769 ft 144 kts 67°
2026-05-07 13:13 52.30193 13.28662 2593 ft 142 kts 66°
2026-05-07 13:13 52.30556 13.30175 2412 ft 143 kts 66°
2026-05-07 13:13 52.30918 13.31683 2201 ft 142 kts 66°
2026-05-07 13:14 52.31279 13.33188 2005 ft 143 kts 66°
2026-05-07 13:14 52.31643 13.34704 1809 ft 143 kts 67°
2026-05-07 13:14 52.32007 13.36226 1599 ft 144 kts 66°
2026-05-07 13:14 52.32371 13.37746 1420 ft 141 kts 67°
2026-05-07 13:15 52.32716 13.39190 1237 ft 134 kts 66°
2026-05-07 13:15 52.33052 13.40598 1038 ft 132 kts 66°
2026-05-07 13:15 52.33385 13.41991 847 ft 131 kts 66°
2026-05-07 13:15 52.33710 13.43353 664 ft 130 kts 68°
2026-05-07 13:16 52.34037 13.44726 507 ft 129 kts 68°
2026-05-07 13:16 52.34362 13.46091 320 ft 129 kts 69°
2026-05-07 13:16 52.34682 13.47441 158 ft 121 kts 69°
2026-05-07 13:16 52.34942 13.48542 154 ft 87 kts 69°
2026-05-07 13:17 52.35111 13.49244 154 ft 48 kts 68°
2026-05-07 13:17 52.35216 13.49682 154 ft 25 kts 66°
2026-05-07 13:17 52.35317 13.49911 155 ft 25 kts 43°
2026-05-07 13:17 52.35444 13.50075 155 ft 22 kts 38°
2026-05-07 13:18 52.35552 13.50219 155 ft 20 kts 39°
2026-05-07 13:18 52.35628 13.50416 155 ft 21 kts 69°
2026-05-07 13:18 52.35683 13.50649 155 ft 23 kts 69°
2026-05-07 13:18 52.35736 13.50814 155 ft 13 kts 36°
2026-05-07 13:19 52.35823 13.50779 155 ft 15 kts 333°
2026-05-07 13:19 52.35911 13.50806 155 ft 15 kts 57°
2026-05-07 13:19 52.35946 13.50947 155 ft 11 kts 68°
2026-05-07 13:19 52.35976 13.51070 155 ft 10 kts 68°
2026-05-07 13:20 52.35993 13.51143 155 ft 4 kts 65°
2026-05-07 13:20 52.36023 13.51170 155 ft 7 kts
2026-05-07 13:20 52.36049 13.51173 155 ft 2 kts 13°
2026-05-07 13:20 52.36087 13.51182 155 ft 0 kts 341°
2026-05-07 13:22 52.36086 13.51182 155 ft 0 kts 341°